星链-2134 (STARLINK-2134 )

导读

STARLINK-2134是美国SpaceX公司星链(Starlink)互联网卫星星座中的一颗卫星,于2021年1月20日发射入轨。星链项目旨在为全球偏远地区提供低延迟、高速宽带互联网服务,该卫星属于星座大规模组网阶段的组成部分,运行在近地轨道,支撑星链全球卫星互联网覆盖服务,助力扩大星链网络的服务覆盖范围,目前星链已在全球六十多个国家和地区落地商用。

基本信息
目录编号:
47407
目录名称:
STARLINK-2134
国际标识:
2021-005BL
轨道中心:
EARTH
卫星名称:
星链-2134
卫星全名:
星链-2134 (STARLINK-2134 )
卫星状态:
在轨 (已飞行1975 天)
发射日期:
2021-01-20 UTC
国别 :
美国 (US)
星等 :
--
轨道信息
数据来源 国际轨道数据
星历时间: 2026-06-18T14:52:26+0800
10小时前
查看轨道信息
半长轴: 6848.861km
偏心率: 0.0001048
轨道倾角: 53.158°
近地点辐角 80.480°
升交点赤经 290.811°
平近点角 279.632°
近地点: 470.006km
远地点: 471.442km
周期: 94.013分钟
每日圈数: 15.317057
详细信息
固有亮度:
5
最大亮度:
2.5
卫星平台:
Starlink V1.0
覆盖范围:
全球
运营商:
太空探索技术公司
运营商所在国:
美国
制造商(研发单位):
太空探索技术公司
制造商所在国:
美国
使用方式:
暂无
卫星简介
星链(Starlink)计划是由太空探索技术公司(SpaceX)提出的一个巨型低轨卫星互联网星座项目,计划在2019年至2024年间在太空搭建由约1.2万颗卫星组成的“星链”网络,其中1584颗将部署在地球上空550千米处的近地轨道,并从2020年开始工作。该卫星仍在工作。
2D轨道图
3D轨道图
轨道高度分析图
轨道倾角分析图
轨道综合分析图
查看轨道综合分析图